Location: Choisy
(48.7685°N, 2.4187°E)
Time: 19:31:57
(UTC+00:00)

Envisat - Pass Details

Date: 29 February 2024
Orbit: 762 x 764 km, 98.3° (Epoch: 24 April)

Event Time Altitude Azimuth Distance (km) Brightness Sun altitude
Rises 04:17:02 0° 7° (N) 3,244 6.5 -23.1°
Reaches altitude 10° 04:19:30 10° 360° (N) 2,313 5.6 -22.7°
Enters shadow 04:23:30 35° 311° (NW) 1,226 3.7 -22.1°
